Miscellaneous Local Product
Issued by NWS Hastings, NE

Home | Current Version | Previous Version | Graphics & Text | Print | Product List | Glossary On
Versions: 1 2 3 4 5 6 7 8 9 10 11 12 13 14 15 16 17 18 19 20 21 22 23 24 25 26 27 28 29 30 31 32 33 34 35 36 37 38 39 40 41 42 43 44 45 46 47 48 49 50
000
AXUS43 KGID 090502
MISGRI

GID CWA HOURLY WEATHER ROUNDUP
NATIONAL WEATHER SERVICE HASTINGS NE
1100 PM CST MON FEB 08 2016

NOTE: "FAIR" INDICATES FEW OR NO CLOUDS BELOW 12,000 FEET WITH NO
SIGNIFICANT WEATHER AND/OR OBSTRUCTIONS TO VISIBILITY.

...SOUTH CENTRAL NEBRASKA...

CITY           SKY/WX    TMP DP  RH WIND       PRES   REMARKS
GRAND ISLAND   CLEAR     19  12  74 W8        30.16F WCI   9
HASTINGS       CLEAR     23  13  65 W8        30.15F WCI  14
ORD            CLEAR     28  17  63 NW13      30.15F WCI  17
YORK           CLEAR     27  19  74 NW14      30.13F WCI  15
AURORA         CLEAR     27  17  67 NW15      30.15S WCI  15
LEXINGTON      PTCLDY    26  19  72 NW9       30.20S WCI  17
HOLDREGE       CLEAR     25  14  62 W9        30.19S WCI  16
HEBRON         CLEAR     29  20  68 NW9       30.16S WCI  21

...NEBRASKA PANHANDLE...

CITY           SKY/WX    TMP DP  RH WIND       PRES   REMARKS
CHADRON        CLOUDY    36  28  73 W10       30.23F WCI  28
ALLIANCE       CLOUDY    33  26  75 NW15      30.21F WCI  23
SCOTTSBLUFF    CLEAR     30  26  85 NW7       30.26F WCI  23
SIDNEY         CLEAR     32  26  78 W13       30.25S WCI  22

...WESTERN AND NORTH CENTRAL NEBRASKA...

CITY           SKY/WX    TMP DP  RH WIND       PRES   REMARKS
VALENTINE      CLOUDY    32  17  54 NW12      30.20S WCI  23
AINSWORTH      CLOUDY    31  16  52 NW13      30.18R WCI  22
ONEILL         CLOUDY    30  20  66 NW15      30.15F WCI  19
BROKEN BOW     MOCLDY    27  15  61 NW15      30.17S WCI  15
IMPERIAL       PTCLDY    28  21  75 W7        30.24F WCI  21
NORTH PLATTE   CLOUDY    30  20  66 NW8       30.21S WCI  22
MCCOOK         CLOUDY    32  22  66 W9        30.24S WCI  24

...EASTERN NEBRASKA...

CITY           SKY/WX    TMP DP  RH WIND       PRES   REMARKS
NORFOLK        PTCLDY    27  17  66 N18       30.11R WCI  14
SO SIOUX CITY  CLOUDY    24  11  57 N31G44    30.09S WCI   7
TEKAMAH        CLEAR     26  14  60 N18       30.11R WCI  13
COLUMBUS       CLEAR     28  12  50 NW16      30.12S WCI  17
ALBION         MOCLDY    26  18  71 NW13      30.13S WCI  15
OMAHA EPPLEY   PTCLDY    25  17  72 NW15      30.09S WCI  13
OFFUTT AFB     PTCLDY    27  17  65 NW17G23   30.08S WCI  14
MILLARD        CLOUDY    29  18  61 NW14G22   30.10R WCI  19
LINCOLN        CLOUDY    31  21  66 NW13      30.12S WCI  21
NEBRASKA CITY  CLOUDY    30  18  60 N21G26    30.08S WCI  17
BEATRICE       CLEAR     31  22  70 NW18      30.12S WCI  19
FALLS CITY     PTCLDY    30  20  66 NW16G23   30.08S WCI  19

...NORTHERN KANSAS...

CITY           SKY/WX    TMP DP  RH WIND       PRES   REMARKS
GOODLAND       CLOUDY    25  21  85 W6        30.25F WCI  18
HILL CITY      MOCLDY    29  20  69 W8        30.24F WCI  21
NORTON         CLOUDY    34  19  55 W14       30.22R WCI  24
PHILLIPSBURG   CLEAR     27  19  74 CALM      30.24R
SMITH CENTER   MOCLDY    27  19  74 W9        30.21F WCI  17
BELOIT         PTCLDY    28  19  69 W9        30.19S WCI  20
HAYS           CLEAR     30  16  55 NW13      30.23S WCI  20
RUSSELL        CLEAR     27  19  72 NW9       30.22S WCI  18
CONCORDIA      CLEAR     29  18  63 NW9       30.17S WCI  20
SALINA         CLEAR     34  18  52 NW15      30.20S WCI  24
TOPEKA         PTCLDY    32  19  58 W8        30.11F WCI  25



USA.gov is the U.S. government's official web portal to all federal, state and local government web resources and services.